Back to catalog

STARLINK-35510

AliveCommunicationsVLEO
NORAD 66397·PAYLOAD·🇺🇸 United States

Launched Nov 8, 2025 from Cape Canaveral Space Force Station

Loading…

Next Passes (next 24 hours)

TLE

FreshSource: CelesTrak SupGP

Epoch: Sep 14, 2026, 22:28 UTC

1 66397C 25257T   26257.93659722  .00026111  00000+0  77179-3 0  2578
2 66397  53.1581  55.3626 0001135  81.8535 330.1106 15.34363859    15

Track STARLINK-35510 in real time with AllMySat

Download on the App Store